| time (UTC) | temp F | wind direction | speed knots | gust knots | rain 1hr in | rain 24hr in | rain mn in | humidity % | barometer mb |
| 20260508064124 | 48 | 329 | 0.0 | 0.0 | 0.00 | 0.40 | 0.00 | 95 | 1015.6 |
| 20260508063117 | 48 | 329 | 0.0 | 0.9 | 0.00 | 0.40 | 0.00 | 96 | 1015.8 |
| 20260508062150 | 48 | 329 | 0.0 | 0.0 | 0.00 | 0.40 | 0.00 | 95 | 1015.6 |
| 20260508061126 | 48 | 329 | 0.0 | 0.0 | 0.00 | 0.40 | 0.00 | 96 | 1015.7 |
| 20260508060116 | 48 | 329 | 0.0 | 0.0 | 0.00 | 0.41 | 0.00 | 96 | 1015.6 |
| 20260508055126 | 49 | 329 | 0.0 | 0.0 | 0.00 | 0.41 | 0.00 | 96 | 1015.7 |
| 20260508054120 | 49 | 329 | 0.0 | 0.0 | 0.00 | 0.41 | 0.00 | 95 | 1015.7 |
| 20260508053132 | 49 | 329 | 0.0 | 0.0 | 0.00 | 0.41 | 0.00 | 95 | 1015.6 |
| 20260508052145 | 49 | 329 | 0.0 | 0.0 | 0.00 | 0.41 | 0.00 | 96 | 1015.7 |
| 20260508051117 | 49 | 329 | 0.0 | 0.0 | 0.00 | 0.41 | 0.00 | 96 | 1015.6 |
| 20260508050134 | 49 | 329 | 0.0 | 0.9 | 0.00 | 0.41 | 0.00 | 95 | 1015.4 |
| 20260508045144 | 50 | 329 | 0.0 | 0.9 | 0.00 | 0.44 | 0.00 | 96 | 1015.5 |
| 20260508044155 | 50 | 329 | 0.0 | 0.0 | 0.00 | 0.44 | 0.00 | 96 | 1015.4 |
| 20260508043147 | 50 | 329 | 0.0 | 0.0 | 0.00 | 0.44 | 0.00 | 95 | 1015.2 |
| 20260508042138 | 50 | 329 | 0.0 | 0.0 | 0.00 | 0.44 | 0.00 | 96 | 1015.2 |
| 20260508041135 | 50 | 329 | 0.0 | 0.0 | 0.00 | 0.44 | 0.00 | 96 | 1015.1 |
| 20260508040128 | 50 | 329 | 0.0 | 0.0 | 0.00 | 0.51 | 0.44 | 95 | 1015.1 |
| 20260508035115 | 51 | 329 | 0.0 | 0.0 | 0.00 | 0.51 | 0.44 | 95 | 1015.2 |
| 20260508034149 | 51 | 329 | 0.0 | 0.0 | 0.00 | 0.51 | 0.44 | 95 | 1014.9 |
| 20260508033125 | 51 | 329 | 0.0 | 0.0 | 0.00 | 0.51 | 0.44 | 96 | 1014.8 |
| 20260508032137 | 52 | 329 | 0.0 | 0.0 | 0.00 | 0.51 | 0.44 | 96 | 1014.8 |
| 20260508031131 | 52 | 329 | 0.0 | 0.0 | 0.00 | 0.51 | 0.44 | 95 | 1014.7 |
| 20260508030129 | 52 | 329 | 0.0 | 0.0 | 0.00 | 0.52 | 0.44 | 95 | 1014.6 |
| 20260508025118 | 53 | 329 | 0.0 | 0.0 | 0.00 | 0.52 | 0.44 | 95 | 1014.7 |
| 20260508024132 | 53 | 329 | 0.0 | 0.9 | 0.00 | 0.52 | 0.44 | 95 | 1014.6 |
| 20260508023124 | 53 | 329 | 0.0 | 0.0 | 0.00 | 0.52 | 0.44 | 96 | 1014.4 |
| 20260508022122 | 54 | 329 | 0.0 | 0.0 | 0.00 | 0.52 | 0.44 | 96 | 1014.2 |
| 20260508021135 | 54 | 329 | 0.0 | 0.9 | 0.00 | 0.52 | 0.44 | 95 | 1014.3 |
| 20260508020127 | 54 | 329 | 0.0 | 0.9 | 0.00 | 0.52 | 0.44 | 96 | 1014.1 |
| 20260508015123 | 54 | 329 | 0.0 | 0.0 | 0.00 | 0.52 | 0.44 | 96 | 1013.8 |
| 20260508014155 | 55 | 329 | 0.0 | 0.0 | 0.00 | 0.52 | 0.44 | 96 | 1013.7 |
| 20260508013127 | 55 | 329 | 0.0 | 0.0 | 0.00 | 0.52 | 0.44 | 96 | 1013.6 |
| 20260508012119 | 55 | 329 | 0.0 | 0.0 | 0.00 | 0.52 | 0.44 | 96 | 1013.2 |
| 20260508011131 | 55 | 329 | 0.0 | 0.0 | 0.00 | 0.52 | 0.44 | 96 | 1013.2 |
| 20260508010147 | 55 | 329 | 0.0 | 0.0 | 0.00 | 0.52 | 0.44 | 96 | 1013.0 |
| 20260508005155 | 56 | 329 | 0.0 | 0.0 | 0.00 | 0.52 | 0.44 | 96 | 1013.0 |
| 20260508004147 | 56 | 329 | 0.0 | 0.0 | 0.00 | 0.52 | 0.44 | 96 | 1013.0 |
| 20260508003118 | 56 | 329 | 0.0 | 0.0 | 0.00 | 0.52 | 0.44 | 96 | 1013.1 |
| 20260508002135 | 56 | 329 | 0.0 | 0.0 | 0.00 | 0.52 | 0.44 | 96 | 1013.0 |
| 20260508001126 | 56 | 329 | 0.0 | 0.0 | 0.00 | 0.52 | 0.44 | 96 | 1013.2 |
| 20260508000138 | 56 | 329 | 0.0 | 0.9 | 0.00 | 0.52 | 0.44 | 96 | 1013.1 |
| 20260507235128 | 56 | 329 | 0.0 | 0.0 | 0.00 | 0.52 | 0.44 | 96 | 1012.6 |
| 20260507234125 | 56 | 329 | 0.0 | 0.0 | 0.01 | 0.52 | 0.44 | 96 | 1012.5 |
| 20260507233117 | 56 | 329 | 0.0 | 0.9 | 0.01 | 0.52 | 0.44 | 96 | 1012.2 |
| 20260507232128 | 56 | 57 | 0.0 | 0.9 | 0.01 | 0.52 | 0.44 | 96 | 1012.1 |
| 20260507231125 | 56 | 57 | 0.0 | 0.9 | 0.01 | 0.52 | 0.44 | 96 | 1012.0 |
| 20260507230117 | 55 | 57 | 0.0 | 1.7 | 0.01 | 0.52 | 0.44 | 96 | 1011.9 |
| 20260507225147 | 55 | 57 | 0.9 | 1.7 | 0.01 | 0.52 | 0.44 | 96 | 1011.4 |
| 20260507224119 | 55 | 57 | 1.7 | 1.7 | 0.00 | 0.51 | 0.43 | 96 | 1011.6 |
| 20260507223151 | 56 | 57 | 0.9 | 1.7 | 0.03 | 0.51 | 0.43 | 96 | 1011.7 |
| 20260507222126 | 56 | 57 | 0.9 | 3.5 | 0.03 | 0.51 | 0.43 | 96 | 1011.7 |
| 20260507221120 | 56 | 60 | 0.9 | 3.5 | 0.03 | 0.51 | 0.43 | 96 | 1011.5 |
| 20260507220132 | 56 | 52 | 0.9 | 4.3 | 0.04 | 0.51 | 0.43 | 96 | 1011.3 |
| 20260507215125 | 56 | 80 | 0.9 | 3.5 | 0.04 | 0.51 | 0.43 | 96 | 1011.2 |
| 20260507214119 | 56 | 40 | 0.9 | 3.5 | 0.06 | 0.51 | 0.43 | 96 | 1011.1 |
| 20260507213131 | 55 | 39 | 0.9 | 2.6 | 0.05 | 0.48 | 0.40 | 96 | 1011.3 |
| 20260507212145 | 55 | 38 | 1.7 | 3.5 | 0.05 | 0.48 | 0.40 | 96 | 1011.5 |
| 20260507211121 | 55 | 40 | 1.7 | 4.3 | 0.05 | 0.48 | 0.40 | 96 | 1011.1 |
| 20260507210133 | 56 | 59 | 1.7 | 4.3 | 0.04 | 0.47 | 0.39 | 95 | 1011.2 |
| 20260507205143 | 56 | 50 | 1.7 | 4.3 | 0.04 | 0.47 | 0.39 | 95 | 1010.8 |
| 20260507204115 | 56 | 53 | 0.9 | 3.5 | 0.02 | 0.45 | 0.37 | 95 | 1011.1 |
| 20260507203153 | 56 | 45 | 1.7 | 4.3 | 0.00 | 0.43 | 0.35 | 95 | 1011.5 |
| 20260507202125 | 56 | 45 | 1.7 | 4.3 | 0.00 | 0.43 | 0.35 | 95 | 1011.0 |
| 20260507201118 | 57 | 49 | 1.7 | 4.3 | 0.00 | 0.43 | 0.35 | 95 | 1011.1 |
| 20260507200129 | 57 | 61 | 0.9 | 2.6 | 0.00 | 0.43 | 0.35 | 95 | 1011.1 |
| 20260507195124 | 57 | 66 | 2.6 | 5.2 | 0.00 | 0.43 | 0.35 | 95 | 1011.0 |
| 20260507194117 | 57 | 42 | 2.6 | 4.3 | 0.00 | 0.43 | 0.35 | 95 | 1010.9 |
| 20260507193131 | 57 | 57 | 1.7 | 2.6 | 0.00 | 0.43 | 0.35 | 95 | 1010.9 |
| 20260507192129 | 57 | 53 | 2.6 | 4.3 | 0.00 | 0.43 | 0.35 | 96 | 1010.7 |
| 20260507191123 | 57 | 64 | 2.6 | 4.3 | 0.00 | 0.43 | 0.35 | 96 | 1010.9 |
| 20260507190134 | 58 | 53 | 0.9 | 3.5 | 0.00 | 0.43 | 0.35 | 96 | 1011.3 |
| 20260507185124 | 57 | 53 | 1.7 | 4.3 | 0.00 | 0.44 | 0.35 | 95 | 1010.9 |
| 20260507184121 | 58 | 61 | 0.9 | 4.3 | 0.00 | 0.44 | 0.35 | 96 | 1010.9 |
| 20260507183134 | 58 | 62 | 1.7 | 4.3 | 0.00 | 0.44 | 0.35 | 95 | 1011.2 |
| 20260507182126 | 59 | 59 | 2.6 | 3.5 | 0.00 | 0.44 | 0.35 | 95 | 1011.0 |
| 20260507181124 | 59 | 36 | 1.7 | 5.2 | 0.00 | 0.44 | 0.35 | 95 | 1010.9 |
| 20260507180114 | 61 | 41 | 2.6 | 4.3 | 0.00 | 0.45 | 0.35 | 94 | 1011.0 |
| 20260507175126 | 62 | 36 | 2.6 | 4.3 | 0.00 | 0.45 | 0.35 | 95 | 1011.1 |
| 20260507174118 | 63 | 50 | 1.7 | 1.7 | 0.00 | 0.45 | 0.35 | 96 | 1010.9 |
| 20260507173115 | 63 | 50 | 0.9 | 1.7 | 0.00 | 0.45 | 0.35 | 96 | 1011.0 |
| 20260507172127 | 63 | 50 | 0.9 | 1.7 | 0.00 | 0.45 | 0.35 | 96 | 1010.8 |
| 20260507171120 | 63 | 50 | 0.0 | 0.9 | 0.00 | 0.45 | 0.35 | 96 | 1011.0 |
| 20260507170115 | 64 | 50 | 0.0 | 1.7 | 0.00 | 0.45 | 0.35 | 96 | 1011.2 |
| 20260507165125 | 65 | 50 | 0.9 | 4.3 | 0.01 | 0.45 | 0.35 | 95 | 1010.7 |
| 20260507164117 | 65 | 265 | 0.0 | 0.9 | 0.01 | 0.45 | 0.35 | 97 | 1010.3 |
| 20260507163130 | 65 | 265 | 0.0 | 0.0 | 0.01 | 0.45 | 0.35 | 97 | 1010.2 |
| 20260507162128 | 65 | 265 | 0.0 | 0.0 | 0.01 | 0.45 | 0.35 | 97 | 1010.4 |
| 20260507161121 | 65 | 257 | 0.0 | 0.0 | 0.02 | 0.45 | 0.35 | 97 | 1010.6 |
| 20260507160130 | 65 | 257 | 0.0 | 0.0 | 0.03 | 0.45 | 0.35 | 97 | 1010.7 |
| 20260507155141 | 64 | 257 | 0.0 | 0.0 | 0.02 | 0.44 | 0.34 | 97 | 1011.2 |
| 20260507154118 | 64 | 257 | 0.0 | 1.7 | 0.03 | 0.44 | 0.34 | 97 | 1011.4 |
| 20260507153131 | 64 | 257 | 0.0 | 3.5 | 0.04 | 0.44 | 0.34 | 97 | 1011.3 |
| 20260507152124 | 64 | 257 | 0.0 | 1.7 | 0.06 | 0.44 | 0.34 | 97 | 1011.7 |
| 20260507151119 | 65 | 257 | 0.9 | 1.7 | 0.05 | 0.43 | 0.33 | 97 | 1011.9 |
| 20260507150150 | 65 | 250 | 0.9 | 1.7 | 0.05 | 0.42 | 0.32 | 97 | 1011.6 |
| 20260507145120 | 65 | 250 | 0.0 | 0.0 | 0.05 | 0.42 | 0.32 | 97 | 1011.1 |
| 20260507144134 | 65 | 250 | 0.0 | 0.0 | 0.05 | 0.41 | 0.31 | 97 | 1011.1 |
| 20260507143131 | 65 | 250 | 0.0 | 1.7 | 0.06 | 0.40 | 0.30 | 97 | 1011.4 |
| 20260507142124 | 65 | 249 | 0.0 | 0.9 | 0.04 | 0.38 | 0.28 | 97 | 1011.4 |
| 20260507141117 | 65 | 168 | 0.9 | 1.7 | 0.06 | 0.38 | 0.28 | 97 | 1011.4 |
| 20260507140127 | 65 | 164 | 0.0 | 0.0 | 0.06 | 0.37 | 0.27 | 97 | 1010.7 |
| 20260507135122 | 64 | 164 | 0.0 | 1.7 | 0.12 | 0.37 | 0.27 | 97 | 1010.5 |
| 20260507134135 | 64 | 253 | 0.0 | 0.0 | 0.13 | 0.36 | 0.26 | 97 | 1010.9 |
| 20260507133126 | 64 | 253 | 0.0 | 0.0 | 0.12 | 0.34 | 0.24 | 97 | 1011.2 |
| 20260507132122 | 64 | 253 | 0.0 | 0.0 | 0.13 | 0.34 | 0.24 | 97 | 1011.6 |
| 20260507131156 | 64 | 253 | 0.0 | 0.0 | 0.12 | 0.32 | 0.22 | 97 | 1011.7 |
| 20260507130128 | 65 | 253 | 0.0 | 3.5 | 0.14 | 0.30 | 0.20 | 97 | 1012.2 |
| 20260507125119 | 65 | 251 | 0.9 | 3.5 | 0.09 | 0.25 | 0.15 | 97 | 1012.5 |
| 20260507124115 | 65 | 251 | 0.9 | 1.7 | 0.06 | 0.22 | 0.12 | 97 | 1012.2 |
| 20260507123128 | 65 | 250 | 0.9 | 1.7 | 0.06 | 0.22 | 0.12 | 97 | 1011.9 |
| 20260507122118 | 64 | 250 | 0.0 | 0.9 | 0.05 | 0.21 | 0.11 | 97 | 1011.8 |
| 20260507121130 | 64 | 250 | 0.0 | 0.9 | 0.04 | 0.20 | 0.10 | 97 | 1011.9 |
| 20260507120128 | 64 | 250 | 0.0 | 0.9 | 0.00 | 0.16 | 0.06 | 97 | 1011.9 |
| 20260507115118 | 64 | 250 | 0.9 | 1.7 | 0.00 | 0.16 | 0.06 | 97 | 1011.8 |
| 20260507114132 | 64 | 250 | 0.0 | 0.9 | 0.00 | 0.16 | 0.06 | 97 | 1011.5 |
| 20260507113128 | 64 | 242 | 0.9 | 0.9 | 0.00 | 0.16 | 0.06 | 97 | 1011.6 |
| 20260507112122 | 64 | 242 | 0.0 | 0.0 | 0.00 | 0.16 | 0.06 | 97 | 1011.3 |
| 20260507111115 | 64 | 242 | 0.0 | 0.0 | 0.01 | 0.16 | 0.06 | 97 | 1011.2 |
| 20260507110127 | 64 | 242 | 0.0 | 0.9 | 0.01 | 0.16 | 0.06 | 97 | 1011.7 |
| 20260507105123 | 64 | 240 | 0.0 | 0.0 | 0.01 | 0.16 | 0.06 | 97 | 1011.5 |
| 20260507104134 | 64 | 240 | 0.0 | 1.7 | 0.01 | 0.16 | 0.06 | 97 | 1011.6 |
| 20260507103127 | 64 | 240 | 0.0 | 1.7 | 0.01 | 0.16 | 0.06 | 97 | 1011.6 |
| 20260507102125 | 64 | 240 | 0.0 | 1.7 | 0.00 | 0.15 | 0.05 | 97 | 1011.5 |
| 20260507101118 | 64 | 240 | 0.0 | 1.7 | 0.00 | 0.15 | 0.05 | 97 | 1011.4 |
| 20260507100129 | 64 | 240 | 0.0 | 0.9 | 0.00 | 0.15 | 0.05 | 96 | 1011.2 |
| 20260507095118 | 64 | 240 | 0.9 | 0.9 | 0.00 | 0.15 | 0.05 | 97 | 1011.7 |
| 20260507094116 | 64 | 240 | 0.0 | 0.9 | 0.00 | 0.15 | 0.05 | 96 | 1011.6 |
| 20260507093129 | 64 | 240 | 0.0 | 0.0 | 0.00 | 0.15 | 0.05 | 96 | 1011.3 |
| 20260507092121 | 64 | 240 | 0.0 | 1.7 | 0.00 | 0.15 | 0.05 | 96 | 1011.7 |
| 20260507091116 | 64 | 186 | 0.0 | 3.5 | 0.01 | 0.15 | 0.05 | 96 | 1011.3 |
| 20260507090128 | 64 | 223 | 0.9 | 1.7 | 0.01 | 0.15 | 0.05 | 96 | 1011.2 |
| 20260507085121 | 64 | 223 | 0.0 | 0.9 | 0.01 | 0.15 | 0.05 | 96 | 1011.3 |
| 20260507084133 | 64 | 223 | 0.0 | 0.0 | 0.01 | 0.15 | 0.05 | 96 | 1011.2 |
| 20260507083147 | 64 | 223 | 0.0 | 0.9 | 0.01 | 0.15 | 0.05 | 96 | 1011.4 |
| 20260507082119 | 64 | 223 | 0.0 | 1.7 | 0.01 | 0.15 | 0.05 | 96 | 1011.4 |
| 20260507081133 | 64 | 248 | 0.0 | 1.7 | 0.00 | 0.14 | 0.04 | 96 | 1011.4 |
| 20260507080125 | 64 | 248 | 0.0 | 1.7 | 0.00 | 0.14 | 0.04 | 96 | 1011.7 |
| 20260507075120 | 64 | 236 | 0.9 | 3.5 | 0.00 | 0.14 | 0.04 | 96 | 1012.0 |
| 20260507074154 | 64 | 246 | 0.9 | 1.7 | 0.00 | 0.14 | 0.04 | 96 | 1012.2 |
| 20260507073126 | 64 | 246 | 0.0 | 0.9 | 0.00 | 0.14 | 0.04 | 96 | 1012.1 |
| 20260507072119 | 64 | 246 | 0.0 | 1.7 | 0.00 | 0.14 | 0.04 | 96 | 1011.7 |
| 20260507071118 | 64 | 223 | 0.0 | 1.7 | 0.00 | 0.14 | 0.04 | 96 | 1012.0 |
| 20260507070129 | 64 | 174 | 0.0 | 1.7 | 0.00 | 0.14 | 0.04 | 96 | 1012.2 |
| 20260507065140 | 64 | 175 | 0.0 | 0.9 | 0.00 | 0.14 | 0.04 | 96 | 1012.4 |